Terminal Aerodrome Forecast
Issued by NWS New Orleans/Baton Rouge, LA

Home | Current Version | Previous Version | Text Only | Print | Product List | Glossary On
Versions: 1 2 3 4 5 6 7 8 9 10 11 12 13 14 15
000
FTUS44 KLIX 031740
TAFBTR
TAF
KBTR 031740Z 0318/0418 21011KT P6SM SCT040
     FM040100 20006KT P6SM BKN250
     FM040800 18003KT P6SM SCT010 BKN090
     FM041300 24005KT P6SM SCT035 BKN090=

USA.gov is the U.S. government's official web portal to all federal, state and local government web resources and services.